Location: ?????
(37.7324°N, 23.9257°E)
Time: 22:11:43
(UTC+00:00)

Cosmos 1461 - Pass Details

Date: 29 November 2020
Orbit: 500 x 664 km, 65.0° (Epoch: 18 January)

Event Time Altitude Azimuth Distance (km) Brightness Sun altitude
Exits shadow 03:51:51 28° 255° (WSW) 1,202 4.0 -16.9°
Maximum altitude 03:52:07 28° 249° (WSW) 1,195 4.1 -16.9°
Drops below altitude 10° 03:55:54 10° 190° (S) 1,964 5.7 -16.2°
Sets 03:58:21 0° 179° (S) 2,833 6.7 -15.7°
